TimeCST,TemperatureF,Dew PointF,Humidity,Sea Level PressureIn,VisibilityMPH,Wind Direction,Wind SpeedMPH,Gust SpeedMPH,PrecipitationIn,Events,Conditions,WindDirDegrees,DateUTC
12:53 AM,33.1,27.0,78,30.46,10.0,Calm,Calm,-,N/A,,Clear,0,2012-11-14 06:53:00
1:53 AM,32.0,28.0,85,30.48,10.0,Calm,Calm,-,N/A,,Clear,0,2012-11-14 07:53:00
2:53 AM,32.0,28.0,85,30.45,10.0,Calm,Calm,-,N/A,,Clear,0,2012-11-14 08:53:00
3:53 AM,30.9,28.0,89,30.46,10.0,West,3.5,-,N/A,,Clear,260,2012-11-14 09:53:00
4:53 AM,32.0,28.9,88,30.48,10.0,West,3.5,-,N/A,,Clear,260,2012-11-14 10:53:00
5:53 AM,30.9,28.9,92,30.48,10.0,WSW,4.6,-,N/A,,Clear,250,2012-11-14 11:53:00
6:53 AM,30.9,28.0,89,30.48,10.0,Calm,Calm,-,N/A,,Clear,0,2012-11-14 12:53:00
7:53 AM,35.1,30.0,82,30.49,10.0,Calm,Calm,-,N/A,,Clear,0,2012-11-14 13:53:00
8:53 AM,37.0,28.9,73,30.48,10.0,NE,8.1,-,N/A,,Clear,50,2012-11-14 14:53:00
10:53 AM,43.0,27.0,53,30.48,10.0,NNE,4.6,-,N/A,,Clear,30,2012-11-14 16:53:00
11:53 AM,45.0,27.0,49,30.45,10.0,Calm,Calm,-,N/A,,Clear,0,2012-11-14 17:53:00
12:53 PM,46.9,28.0,48,30.43,10.0,North,6.9,-,N/A,,Clear,10,2012-11-14 18:53:00
1:53 PM,48.0,27.0,44,30.40,10.0,NNE,3.5,-,N/A,,Clear,20,2012-11-14 19:53:00
2:53 PM,48.9,27.0,43,30.38,10.0,ENE,8.1,-,N/A,,Clear,60,2012-11-14 20:53:00
3:53 PM,48.0,27.0,44,30.38,10.0,NE,6.9,-,N/A,,Clear,40,2012-11-14 21:53:00
4:53 PM,42.1,27.0,55,30.38,10.0,NE,4.6,-,N/A,,Clear,40,2012-11-14 22:53:00
5:53 PM,37.0,28.0,70,30.38,10.0,North,6.9,-,N/A,,Clear,10,2012-11-14 23:53:00
6:53 PM,37.0,28.0,70,30.38,10.0,Calm,Calm,-,N/A,,Clear,0,2012-11-15 00:53:00
7:53 PM,35.1,28.0,76,30.38,10.0,Calm,Calm,-,N/A,,Clear,0,2012-11-15 01:53:00
8:53 PM,32.0,28.0,85,30.38,10.0,Calm,Calm,-,N/A,,Clear,0,2012-11-15 02:53:00
9:53 PM,30.0,28.0,92,30.38,10.0,Calm,Calm,-,N/A,,Clear,0,2012-11-15 03:53:00
10:53 PM,30.0,27.0,88,30.37,10.0,Calm,Calm,-,N/A,,Clear,0,2012-11-15 04:53:00
11:53 PM,28.0,26.1,92,30.37,10.0,Calm,Calm,-,N/A,,Clear,0,2012-11-15 05:53:00